Weather History for Ames, IA

Change the Weather History Date:

Monday, February 4, 2013

  Actual Average Record
Temperature  
Mean Temperature 20 °F 22 °F  
Max Temperature 26 °F 31 °F 54 °F (2005)
Min Temperature 14 °F 12 °F -13 °F (2007)
Degree Days  
Heating Degree Days 45 43  
Month to date heating degree days 185 175  
Since 1 July heating degree days 4087 4330  
Cooling Degree Days 0 0  
Month to date cooling degree days 0 0  
Year to date cooling degree days 0 0  
Moisture  
Dew Point 16 °F    
Average Humidity 80    
Maximum Humidity 92    
Minimum Humidity 68    
Precipitation  
Precipitation 0.00 in 0.03 in 0.18 in (1997)
Month to date precipitation 0.06 0.12  
Sea Level Pressure  
Sea Level Pressure 29.95 in    
Wind  
Wind Speed 8 mph (North)    
Max Wind Speed 23 mph    
Max Gust Speed 26 mph    
Visibility 9 miles    
Events      
T = Trace of Precipitation, MM = Missing Value Source: NWS Daily Summary

Daily Weather History Graph

Daily Weather History Graph

Search for Another Location

Airport:

Trip Planner

Search our weather history database for the weather conditions in past years. The results will help you decide how hot, cold, wet, or windy it might be!

Date:

Astronomy

Feb. 04, 2013 Rise Set
Actual Time 7:23 AM CST 5:33 PM CST
Civil Twilight 6:54 AM CST 6:03 PM CST
Nautical Twilight 6:21 AM CST 6:36 PM CST
Astronomical Twilight 5:48 AM CST 7:08 PM CST
Moon 2:01 AM CST (2/4) 11:56 AM CST (2/4)
Length of Visible Light 11h 08m
Length of Day
10h 09m
Last Quarter, 37% of the Moon is Illuminated
Feb 4
Last Quarter
Feb 10
New
Feb 17
First Quarter
Feb 25
Full
Mar 4
Last Quarter

Hourly Weather History & Observations

Time (CST) Temp. Windchill Dew Point Humidity Pressure Visibility Wind Dir Wind Speed Gust Speed Precip Events Conditions
12:53 AM 24.1 °F - 19.0 °F 81% 29.80 in 10.0 mi Calm Calm - N/A   Partly Cloudy
1:53 AM 25.0 °F - 19.0 °F 78% 29.79 in 10.0 mi Calm Calm - N/A   Mostly Cloudy
2:53 AM 25.0 °F - 21.0 °F 85% 29.80 in 10.0 mi Calm Calm - N/A   Overcast
5:01 AM 21.2 °F 11.7 °F 17.6 °F 86% 29.81 in 10.0 mi North 8.1 mph - N/A   Mostly Cloudy
5:53 AM 23.0 °F 11.1 °F 18.0 °F 81% 29.87 in 10.0 mi North 12.7 mph - N/A   Overcast
6:53 AM 21.9 °F 8.2 °F 18.0 °F 85% 29.91 in 10.0 mi North 16.1 mph 21.9 mph N/A   Overcast
7:32 AM 19.4 °F 5.0 °F 15.8 °F 86% 29.90 in 10.0 mi North 16.1 mph - N/A   Overcast
7:53 AM 19.9 °F 6.7 °F 16.0 °F 85% 29.94 in 8.0 mi North 13.8 mph 25.3 mph N/A   Overcast
8:53 AM 18.0 °F 2.6 °F 14.0 °F 84% 29.97 in 6.0 mi North 17.3 mph - N/A   Overcast
9:53 AM 19.0 °F 4.5 °F 14.0 °F 81% 29.99 in 5.0 mi North 16.1 mph - N/A   Haze
10:53 AM 19.9 °F 5.2 °F 15.1 °F 81% 30.05 in 8.0 mi NNW 17.3 mph - N/A   Overcast
11:30 AM 19.4 °F 6.0 °F 15.8 °F 86% 30.01 in 10.0 mi NNW 13.8 mph - N/A   Overcast
11:53 AM 19.9 °F 7.3 °F 15.1 °F 81% 30.04 in 10.0 mi North 12.7 mph - N/A   Overcast
12:53 PM 21.9 °F 11.7 °F 16.0 °F 78% 30.01 in 9.0 mi NNE 9.2 mph - N/A   Overcast
1:53 PM 24.1 °F 18.2 °F 16.0 °F 71% 29.99 in 10.0 mi NE 4.6 mph - N/A   Mostly Cloudy
2:53 PM 23.0 °F 13.9 °F 16.0 °F 74% 30.02 in 10.0 mi NW 8.1 mph - N/A   Overcast
3:53 PM 23.0 °F 17.0 °F 16.0 °F 74% 30.01 in 10.0 mi North 4.6 mph - N/A   Overcast
4:38 PM 23.0 °F - 15.8 °F 74% 29.96 in 10.0 mi Calm Calm - N/A   Scattered Clouds
4:53 PM 21.9 °F - 16.0 °F 78% 29.99 in 10.0 mi Calm Calm - N/A   Clear
5:53 PM 21.0 °F - 15.1 °F 78% 30.00 in 10.0 mi Calm Calm - N/A   Clear
6:20 PM 19.4 °F - 14.0 °F 80% 29.96 in 10.0 mi Calm Calm - N/A   Mostly Cloudy
6:53 PM 18.0 °F - 14.0 °F 84% 29.99 in 10.0 mi Calm Calm - N/A   Overcast
7:38 PM 17.6 °F 12.3 °F 14.0 °F 86% 29.95 in 9.0 mi SE 3.5 mph - N/A   Scattered Clouds
7:53 PM 17.1 °F 8.7 °F 15.1 °F 92% 29.98 in 9.0 mi South 5.8 mph - N/A   Clear
8:53 PM 17.1 °F 8.7 °F 12.9 °F 84% 29.96 in 8.0 mi South 5.8 mph - N/A   Scattered Clouds
9:53 PM 21.0 °F 10.6 °F 16.0 °F 81% 29.96 in 10.0 mi South 9.2 mph - N/A   Overcast
10:53 PM 21.0 °F 10.6 °F 17.1 °F 85% 29.95 in 8.0 mi South 9.2 mph - N/A   Overcast
11:53 PM 21.9 °F 11.0 °F 17.1 °F 82% 29.93 in 7.0 mi South 10.4 mph - N/A   Overcast